Regional Weather Roundup
Issued by NWS

Home | Current Version | Previous Version | Graphics & Text | Print | Product List | Glossary On
Versions: 1 2 3 4 5 6 7 8 9 10 11 12 13 14 15 16 17 18 19 20 21 22 23 24 25 26 27 28 29 30 31 32 33 34 35 36 37 38 39 40 41 42 43 44 45 46 47 48 49 50
000
ASUS43 KFSD 310802
RWRSD

WEATHER ROUNDUP FOR SOUTH DAKOTA
NATIONAL WEATHER SERVICE SIOUX FALLS SD
300 AM CDT WED AUG 31 2016

NOTE: "FAIR" INDICATES FEW OR NO CLOUDS BELOW 12,000 FEET WITH NO
SIGNIFICANT WEATHER AND/OR OBSTRUCTIONS TO VISIBILITY.


SDZ001>005-009-010-012>017-310900-
NORTHWEST AND NORTH CENTRAL SOUTH DAKOTA

CITY           SKY/WX    TMP DP  RH WIND       PRES   REMARKS
BUFFALO          N/A     65  60  84 S12       30.07F
MOBRIDGE       CLOUDY    69  59  70 SE10      30.14F
$$

SDZ012>016-024>037-041>051-057-063-072>074-310900-
SOUTHWEST AND SOUTH CENTRAL SOUTH DAKOTA

CITY           SKY/WX    TMP DP  RH WIND       PRES   REMARKS
RAPID CTY ARPT CLEAR     62  55  77 SW5       30.18F
PIERRE         CLEAR     66  65  96 E6        30.16S
CUSTER         CLEAR     59  51  75 CALM      30.34F
ELLSWORTH AFB  CLEAR     66  56  71 SW7       30.17F
PHILIP           N/A     67  61  81 S7        30.16F
PINE RIDGE     CLEAR     61  58  90 SW5       30.23F
WINNER         FAIR      71  64  78 S12       30.20S
$$

SDZ004>011-016>023-039-040-310900-
NORTHEAST SOUTH DAKOTA

CITY           SKY/WX    TMP DP  RH WIND       PRES   REMARKS
ABERDEEN       CLOUDY    59  55  87 NE7       30.20F
WATERTOWN      PTCLDY    59  55  87 CALM      30.23S
SISSETON         N/A     57  53  86 CALM      30.21S
$$

SDZ017-020-022-023-036>040-048>070-310900-
SOUTHEAST SOUTH DAKOTA

CITY           SKY/WX    TMP DP  RH WIND       PRES   REMARKS
SIOUX FALLS    CLEAR     59  57  93 N5        30.22R
HURON          MOCLDY    66  60  81 SE6       30.20R
CHAMBERLAIN    CLEAR     67  66  99 SE6       30.19S
MITCHELL       CLEAR     64  62  93 SE3       30.20S
YANKTON          N/A     66  64  94 NE3       30.19S VSB 1/2
$$

ABBREVIATIONS USED IN REMARKS
   TC - TEMPERATURE IN CELSIUS
  WCI - WIND CHILL INDEX
   HX - HEAT INDEX
  VSB - VISIBILITY





USA.gov is the U.S. government's official web portal to all federal, state and local government web resources and services.